• în România
  • Lista ţărilor
  • Pe 7 zile
  • Temperatura apei
  • Hartă satelitară
  • Meteo pe hartă
  • Widget-uri
  • user-avatar
    Intrare

    Meteo pe oră la Borodynovka

    Astăzi, 26 Septembrie, Miercuri

    Timp Temperatura Precipitaţii Vânt Presiune Umiditate
    00:00 +18°C° 0.1 mm 4 m/s 734 mmHg 82%
    01:00 +17°C° 0.2 mm 4 m/s 735 mmHg 83%
    02:00 +15°C° 0.2 mm 4 m/s 735 mmHg 83%
    03:00 +14°C° 0 mm 4 m/s 735 mmHg 78%
    04:00 +13°C° 0.1 mm 4 m/s 736 mmHg 77%
    05:00 +13°C° 0.1 mm 3 m/s 736 mmHg 77%
    06:00 +13°C° 0.1 mm 3 m/s 736 mmHg 76%
    07:00 +12°C° 0.1 mm 3 m/s 737 mmHg 76%
    08:00 +13°C° 0.1 mm 2 m/s 737 mmHg 77%
    09:00 +13°C° 0.1 mm 2 m/s 737 mmHg 77%
    10:00 +13°C° 0.1 mm 2 m/s 738 mmHg 77%
    11:00 +14°C° 0.1 mm 2 m/s 738 mmHg 77%
    12:00 +14°C° 0.1 mm 2 m/s 738 mmHg 76%
    13:00 +14°C° 0.1 mm 2 m/s 738 mmHg 75%
    14:00 +14°C° 0.1 mm 2 m/s 738 mmHg 74%
    15:00 +14°C° 0.1 mm 2 m/s 738 mmHg 73%
    16:00 +14°C° 0 mm 1 m/s 738 mmHg 73%
    17:00 +14°C° 0 mm 1 m/s 739 mmHg 74%
    18:00 +13°C° 0 mm 1 m/s 739 mmHg 75%
    19:00 +13°C° 0 mm 1 m/s 739 mmHg 76%
    20:00 +13°C° 0 mm 1 m/s 739 mmHg 76%
    21:00 +13°C° 0 mm 1 m/s 740 mmHg 77%
    22:00 +13°C° 0 mm 1 m/s 740 mmHg 77%
    23:00 +12°C° 0 mm 1 m/s 740 mmHg 77%

    Mâine, 27 Septembrie, Joi

    Timp Temperatura Precipitaţii Vânt Presiune Umiditate
    00:00 +12°C° 0 mm 1 m/s 740 mmHg 77%
    01:00 +12°C° 0 mm 1 m/s 740 mmHg 78%
    02:00 +12°C° 0 mm 1 m/s 740 mmHg 79%
    03:00 +11°C° 0 mm 0 m/s 740 mmHg 79%
    04:00 +11°C° 0 mm 1 m/s 740 mmHg 80%
    05:00 +11°C° 0 mm 1 m/s 740 mmHg 80%
    06:00 +11°C° 0 mm 1 m/s 740 mmHg 81%
    07:00 +12°C° 0.1 mm 1 m/s 740 mmHg 78%
    08:00 +13°C° 0.1 mm 1 m/s 740 mmHg 75%
    09:00 +14°C° 0.1 mm 1 m/s 740 mmHg 72%
    10:00 +15°C° 0 mm 2 m/s 740 mmHg 67%
    11:00 +16°C° 0 mm 2 m/s 739 mmHg 62%
    12:00 +18°C° 0 mm 3 m/s 739 mmHg 57%
    13:00 +18°C° 0 mm 2 m/s 739 mmHg 55%
    14:00 +19°C° 0 mm 2 m/s 739 mmHg 54%
    15:00 +19°C° 0 mm 2 m/s 738 mmHg 53%
    16:00 +18°C° 0 mm 2 m/s 738 mmHg 58%
    17:00 +17°C° 0 mm 2 m/s 738 mmHg 63%
    18:00 +16°C° 0 mm 1 m/s 738 mmHg 68%
    19:00 +15°C° 0 mm 1 m/s 738 mmHg 71%
    20:00 +15°C° 0 mm 1 m/s 738 mmHg 74%
    21:00 +14°C° 0 mm 1 m/s 739 mmHg 77%
    22:00 +14°C° 0 mm 1 m/s 739 mmHg 78%
    23:00 +14°C° 0 mm 1 m/s 739 mmHg 78%

    Poimâine, 28 Septembrie, Vineri

    Timp Temperatura Precipitaţii Vânt Presiune Umiditate
    00:00 +13°C° 0 mm 1 m/s 739 mmHg 79%
    01:00 +13°C° 0 mm 1 m/s 739 mmHg 79%
    02:00 +13°C° 0 mm 1 m/s 739 mmHg 80%
    03:00 +13°C° 0 mm 1 m/s 738 mmHg 80%
    04:00 +13°C° 0 mm 1 m/s 738 mmHg 80%
    05:00 +12°C° 0 mm 1 m/s 738 mmHg 80%
    06:00 +11°C° 0 mm 0 m/s 738 mmHg 80%
    07:00 +14°C° 0 mm 1 m/s 738 mmHg 74%
    08:00 +15°C° 0 mm 1 m/s 738 mmHg 68%
    09:00 +18°C° 0 mm 1 m/s 738 mmHg 62%
    10:00 +19°C° 0 mm 2 m/s 738 mmHg 58%
    11:00 +20°C° 0 mm 3 m/s 737 mmHg 54%
    12:00 +21°C° 0 mm 3 m/s 737 mmHg 50%
    13:00 +22°C° 0 mm 3 m/s 737 mmHg 49%
    14:00 +22°C° 0 mm 4 m/s 736 mmHg 48%
    15:00 +23°C° 0 mm 4 m/s 736 mmHg 48%
    16:00 +21°C° 0 mm 3 m/s 736 mmHg 53%
    17:00 +20°C° 0 mm 3 m/s 735 mmHg 58%
    18:00 +18°C° 0 mm 2 m/s 735 mmHg 63%
    19:00 +18°C° 0 mm 2 m/s 735 mmHg 65%
    20:00 +17°C° 0 mm 2 m/s 735 mmHg 68%
    21:00 +16°C° 0 mm 2 m/s 735 mmHg 70%
    22:00 +16°C° 0 mm 2 m/s 735 mmHg 72%
    23:00 +16°C° 0 mm 2 m/s 734 mmHg 73%

    29 Septembrie, Sâmbătă

    Timp Temperatura Precipitaţii Vânt Presiune Umiditate
    00:00 +15°C° 0 mm 2 m/s 734 mmHg 75%
    01:00 +15°C° 0 mm 1 m/s 734 mmHg 76%
    02:00 +15°C° 0 mm 1 m/s 734 mmHg 78%
    03:00 +15°C° 0 mm 1 m/s 734 mmHg 79%
    04:00 +14°C° 0 mm 1 m/s 734 mmHg 80%
    05:00 +14°C° 0 mm 1 m/s 733 mmHg 81%
    06:00 +14°C° 0 mm 1 m/s 733 mmHg 82%
    07:00 +16°C° 0 mm 1 m/s 733 mmHg 77%
    08:00 +18°C° 0 mm 1 m/s 733 mmHg 73%
    09:00 +20°C° 0 mm 1 m/s 733 mmHg 68%
    10:00 +20°C° 0 mm 2 m/s 733 mmHg 64%
    11:00 +23°C° 0 mm 2 m/s 733 mmHg 61%
    12:00 +24°C° 0 mm 3 m/s 732 mmHg 57%
    13:00 +24°C° 0 mm 3 m/s 732 mmHg 56%
    14:00 +25°C° 0 mm 3 m/s 732 mmHg 55%
    15:00 +25°C° 0 mm 3 m/s 732 mmHg 53%
    16:00 +24°C° 0 mm 2 m/s 732 mmHg 59%
    17:00 +23°C° 0 mm 2 m/s 732 mmHg 65%
    18:00 +20°C° 0 mm 2 m/s 732 mmHg 71%
    19:00 +20°C° 0 mm 2 m/s 732 mmHg 73%
    20:00 +20°C° 0 mm 1 m/s 732 mmHg 76%
    21:00 +19°C° 0 mm 1 m/s 732 mmHg 78%
    22:00 +19°C° 0 mm 1 m/s 732 mmHg 78%
    23:00 +19°C° 0 mm 1 m/s 732 mmHg 77%

    30 Septembrie, Duminică

    Timp Temperatura Precipitaţii Vânt Presiune Umiditate
    00:00 +19°C° 0 mm 1 m/s 731 mmHg 77%
    01:00 +19°C° 0 mm 1 m/s 731 mmHg 76%
    02:00 +19°C° 0 mm 1 m/s 731 mmHg 74%
    03:00 +19°C° 0 mm 1 m/s 731 mmHg 73%
    04:00 +19°C° 0 mm 1 m/s 732 mmHg 72%
    05:00 +19°C° 0 mm 1 m/s 732 mmHg 72%
    06:00 +19°C° 0 mm 1 m/s 732 mmHg 71%
    07:00 +20°C° 0 mm 1 m/s 732 mmHg 67%
    08:00 +22°C° 0 mm 1 m/s 732 mmHg 62%
    09:00 +23°C° 0 mm 1 m/s 732 mmHg 57%
    10:00 +24°C° 0 mm 1 m/s 732 mmHg 54%
    11:00 +26°C° 0 mm 2 m/s 732 mmHg 51%
    12:00 +27°C° 0 mm 2 m/s 732 mmHg 47%
    13:00 +27°C° 0.1 mm 2 m/s 732 mmHg 47%
    14:00 +28°C° 0.1 mm 2 m/s 732 mmHg 46%
    15:00 +28°C° 0.1 mm 2 m/s 732 mmHg 45%
    16:00 +27°C° 0.1 mm 2 m/s 732 mmHg 50%
    17:00 +25°C° 0.1 mm 2 m/s 733 mmHg 55%
    18:00 +24°C° 0.1 mm 2 m/s 733 mmHg 60%
    19:00 +23°C° 0.1 mm 2 m/s 734 mmHg 63%
    20:00 +23°C° 0.1 mm 2 m/s 734 mmHg 66%
    21:00 +21°C° 0.1 mm 2 m/s 734 mmHg 69%
    22:00 +20°C° 0.3 mm 3 m/s 734 mmHg 70%
    23:00 +19°C° 0.3 mm 3 m/s 734 mmHg 72%

    1 Octombrie, Luni

    Timp Temperatura Precipitaţii Vânt Presiune Umiditate
    00:00 +19°C° 0.3 mm 4 m/s 734 mmHg 73%
    01:00 +18°C° 0 mm 4 m/s 734 mmHg 74%
    02:00 +17°C° 0 mm 4 m/s 734 mmHg 74%
    03:00 +17°C° 0 mm 4 m/s 734 mmHg 75%
    04:00 +15°C° 0 mm 4 m/s 734 mmHg 76%
    05:00 +14°C° 0 mm 4 m/s 735 mmHg 77%
    06:00 +14°C° 0 mm 4 m/s 735 mmHg 78%
    07:00 +15°C° 0 mm 5 m/s 735 mmHg 74%
    08:00 +16°C° 0 mm 5 m/s 735 mmHg 70%
    09:00 +16°C° 0 mm 6 m/s 735 mmHg 66%
    10:00 +19°C° 0 mm 6 m/s 735 mmHg 63%
    11:00 +20°C° 0 mm 6 m/s 734 mmHg 59%
    12:00 +21°C° 0 mm 7 m/s 734 mmHg 56%
    13:00 +21°C° 0 mm 7 m/s 734 mmHg 56%
    14:00 +22°C° 0 mm 7 m/s 734 mmHg 57%
    15:00 +22°C° 0 mm 7 m/s 733 mmHg 58%
    16:00 +21°C° 0 mm 7 m/s 733 mmHg 62%
    17:00 +20°C° 0 mm 7 m/s 734 mmHg 66%
    18:00 +19°C° 0 mm 6 m/s 734 mmHg 70%
    19:00 +19°C° 0 mm 6 m/s 734 mmHg 73%
    20:00 +17°C° 0 mm 7 m/s 734 mmHg 77%
    21:00 +16°C° 0 mm 7 m/s 734 mmHg 80%
    22:00 +16°C° 0 mm 7 m/s 734 mmHg 81%
    23:00 +16°C° 0 mm 6 m/s 733 mmHg 82%
    Arată mai mult